TimePDT,TemperatureF,Dew PointF,Humidity,Sea Level PressureIn,VisibilityMPH,Wind Direction,Wind SpeedMPH,Gust SpeedMPH,PrecipitationIn,Events,Conditions,WindDirDegrees,DateUTC
12:56 AM,37.9,28.0,68,30.06,10.0,Calm,Calm,-,N/A,,Mostly Cloudy,0,2012-10-25 07:56:00
1:56 AM,39.0,28.9,67,30.08,10.0,Calm,Calm,-,N/A,,Overcast,0,2012-10-25 08:56:00
2:56 AM,34.0,25.0,70,30.07,10.0,Calm,Calm,-,N/A,,Partly Cloudy,0,2012-10-25 09:56:00
3:56 AM,28.9,21.9,75,30.08,10.0,NNW,3.5,-,N/A,,Clear,330,2012-10-25 10:56:00
4:56 AM,27.0,21.0,78,30.08,10.0,Calm,Calm,-,N/A,,Clear,0,2012-10-25 11:56:00
5:56 AM,28.0,21.0,75,30.10,10.0,SW,3.5,-,N/A,,Clear,230,2012-10-25 12:56:00
6:13 AM,28.4,23.0,80,30.21,10.0,Variable,5.8,-,N/A,,Partly Cloudy,0,2012-10-25 13:13:00
6:56 AM,27.0,21.9,81,30.11,10.0,SW,3.5,-,N/A,,Mostly Cloudy,220,2012-10-25 13:56:00
7:56 AM,26.1,19.9,78,30.14,10.0,Calm,Calm,-,N/A,,Scattered Clouds,0,2012-10-25 14:56:00
8:56 AM,39.9,30.0,68,30.17,10.0,Calm,Calm,-,N/A,,Scattered Clouds,0,2012-10-25 15:56:00
9:56 AM,43.0,30.9,62,30.17,10.0,North,5.8,-,N/A,,Mostly Cloudy,10,2012-10-25 16:56:00
10:56 AM,46.9,30.9,54,30.18,10.0,North,9.2,-,N/A,,Mostly Cloudy,360,2012-10-25 17:56:00
11:56 AM,48.9,28.9,46,30.19,10.0,NNE,9.2,18.4,N/A,,Mostly Cloudy,30,2012-10-25 18:56:00
12:56 PM,51.1,27.0,39,30.19,10.0,NNE,10.4,-,N/A,,Mostly Cloudy,30,2012-10-25 19:56:00
1:56 PM,52.0,26.1,37,30.18,10.0,NNE,12.7,20.7,N/A,,Mostly Cloudy,20,2012-10-25 20:56:00
2:56 PM,52.0,25.0,35,30.17,10.0,North,15.0,18.4,N/A,,Mostly Cloudy,10,2012-10-25 21:56:00
3:56 PM,51.1,23.0,33,30.19,10.0,NNE,10.4,-,N/A,,Mostly Cloudy,20,2012-10-25 22:56:00
4:56 PM,51.1,21.0,31,30.19,10.0,NE,8.1,-,N/A,,Mostly Cloudy,40,2012-10-25 23:56:00
5:56 PM,46.9,21.9,37,30.20,10.0,NNE,9.2,-,N/A,,Scattered Clouds,20,2012-10-26 00:56:00
6:56 PM,42.1,21.0,43,30.22,10.0,NNE,5.8,-,N/A,,Partly Cloudy,20,2012-10-26 01:56:00
7:56 PM,37.9,21.0,51,30.23,10.0,NNE,8.1,-,N/A,,Partly Cloudy,20,2012-10-26 02:56:00
8:56 PM,37.0,21.0,52,30.24,10.0,North,8.1,-,N/A,,Clear,10,2012-10-26 03:56:00
9:56 PM,34.0,19.9,56,30.26,10.0,NNE,6.9,-,N/A,,Clear,20,2012-10-26 04:56:00
10:56 PM,34.0,19.9,56,30.27,10.0,Calm,Calm,-,N/A,,Clear,0,2012-10-26 05:56:00
11:56 PM,30.9,19.9,64,30.25,10.0,Calm,Calm,-,N/A,,Clear,0,2012-10-26 06:56:00